THORAD AGENA D DEB *, 6159

Orbit data source: Space-Track

THORAD AGENA D DEB *, 6159 is space debris in SSO originally from a launch on Wed, 08 Apr 1970 UTC launched from the Air Force Western Test Range (AFWTR). Debris objects in space refer to the collection of defunct objects orbiting the Earth. Examples of debris include non-operational satellites, rocket bodies, and fragments generated from explosions, collisions, or faulty payload assembly.

Loading next visibility...
Identifier
6159, 1970-025MY
Orbit
SSO
Country
Flag of USUS
Related business
Manufacturer
Unknown
Mission
Spacecraft
Bus & Motor
Unknown
Mass
Unknown
Launch date (UTC)
1970-04-08 (56 years ago)
Launch vehicle
Unknown
Launch site
Air Force Western Test Range (AFWTR)
Object type
Payload
Rocket body
Debris
Shape & HBR
Unknown shape, 0.1 m
Radar Cross Section
Small (<0.1 m²)

Expand to show TLE details & history
Last TLE update: 1 week ago

TLE from 1 week ago
0 THORAD AGENA D DEB *
1 06159U 70025MY  25345.37526381  .00002036  00000-0  78529-2 0  9993
2 06159 101.1999 123.0495 0065191 241.1555 143.5628 12.90339265631539
Epoch: 2025-12-11T09:00Z
TLE epoch observation values (Epoch: 2025-12-11T09:00:22.793Z)
Latitude
24.67466°
Longitude
-97.57073°
Altitude
1,343.319 km
Speed
7.169 km/s
True Right ascension
07h 51m 25s
True Declination
24° 33' 16"
Sunlit
Object was in full shadow at epoch
Visualization orbit readout
Latitude
Unknown
Longitude
Unknown
Altitude
Unknown
Speed
Unknown
Apparent Right ascension
Unknown
Apparent Declination
Unknown
Sunlit
N/A
Visualization observer readout
Local Sidereal Time
07:33:43
Azimuth
Unknown
Elevation
Unknown
Doppler factor
Unknown
Orbital elements
Apogee altitude
1,347.679 km
Perigee altitude
1,247.6 km
Semi-major axis
7,675.776 km
Eccentricity
0.00652
Inclination
101.1999°
RAAN
123.0495°
Arg. of periapsis
241.1555°
True anomaly
144.0036°
Mean anomaly
143.5628°
Eccentric anomaly
143.78349°
Mean motion
3.22745 °/min
Orbital period
111.54 mins
BSTAR
0.0078529
Loading maneuver chart data...
Computing Atmospheric mass density...

Documentation

Showing up to 5 results
|